Home   Weather   Playa del Carmen   Past weeks

Flag for Mexico Past Weather in Playa del Carmen, Quintana Roo, Mexico — Yesterday and Last 2 Weeks

Now
84 °F

Scattered clouds.


Feels Like: 92 °F
Forecast: 81 / 87 °F
Wind: 25 mph from Southeast

Location: Cozumel Civ / Mil

Current Time: Apr 29, 2017 at 10:47:57 am

Latest Report: Apr 29, 2017 at 9:57 am


Visibility: 8 mi

Pressure: 29.94 "Hg

Humidity: 74%

Dew Point: 75 °F

Location of Playa del CarmenLocation

Past Weather in Playa del Carmen — Graph

°F

Playa del Carmen Temperature Yesterday

Maximum temperature yesterday: 88 °F (at 12:41 pm)
Minimum temperature yesterday: 81 °F (at 3:43 am)
Average temperature yesterday: 84 °F

High & Low Weather Summary for the Past Weeks

 TemperatureHumidityPressure
High90 °F (Apr 27, 1:40 pm)100% (Apr 16, 11:40 pm)30.07 "Hg (Apr 16, 11:40 pm)
Low66 °F (Apr 15, 2:49 am)43% (Apr 16, 2:41 pm)29.72 "Hg (Apr 26, 4:44 pm)
Average80 °F77%29.90 "Hg
* Reported Apr 14 8:47 am — Apr 29 8:43 am, Playa del Carmen, Weather by CustomWeather, © 2017

Note: Actual official high and low records may vary slightly from our data, if they occured in-between our weather recording intervals... More about our weather records

Advertising

Playa del Carmen Weather History for the Previous 24 Hours

Scroll right to see more
 ConditionsComfort  
Time TempWeatherWind HumidityBarometerVisibility
8:43 am
Sat, Apr 29
84 °FScattered clouds.21 mph79%29.92 "Hg7 mi
7:48 am84 °FScattered clouds.15 mph79%29.91 "Hg7 mi
6:46 am82 °FPassing clouds.17 mph84%29.91 "Hg7 mi
5:51 am82 °FPassing clouds.13 mph84%29.89 "Hg7 mi
3:46 am82 °FPassing clouds.12 mph84%29.88 "Hg7 mi
2:57 am82 °FPassing clouds.16 mph84%29.86 "Hg7 mi
1:49 am82 °FPassing clouds.N/A84%29.87 "Hg7 mi
12:47 am81 °FPassing clouds.16 mph89%29.90 "Hg7 mi
11:42 pm
Fri, Apr 28
82 °FPassing clouds.14 mph84%29.89 "Hg7 mi
10:42 pm82 °FPassing clouds.17 mph84%29.89 "Hg7 mi
10:02 pm82 °FPassing clouds.20 mph84%29.91 "Hg7 mi
8:45 pm82 °FPassing clouds.15 mph84%29.86 "Hg7 mi
7:42 pm82 °FScattered clouds.14 mph84%29.85 "Hg7 mi
6:50 pm82 °FScattered clouds.16 mph84%29.85 "Hg7 mi
5:45 pm84 °FScattered clouds.20 mph79%29.83 "Hg8 mi
4:55 pm86 °FScattered clouds.17 mph75%29.82 "Hg8 mi
3:48 pm86 °FPartly sunny.14 mph75%29.84 "Hg8 mi
2:41 pm86 °FScattered clouds.14 mph75%29.83 "Hg8 mi
1:47 pm86 °FPartly sunny.20 mph75%29.86 "Hg7 mi
12:41 pm88 °FPartly sunny.17 mph70%29.89 "Hg6 mi
11:41 am86 °FPartly sunny.12 mph75%29.89 "Hg6 mi
10:42 am86 °FPartly sunny.21 mph75%29.89 "Hg6 mi
Weather by CustomWeather, © 2017

See weather overviewHow to use our weather pages